DELTA 1 DEB, 7076

Orbit data source: Space-Track

DELTA 1 DEB, 7076 is space debris in SSO originally from a launch on Tue, 06 Nov 1973 UTC launched from the Air Force Western Test Range (AFWTR). Debris objects in space refer to the collection of defunct objects orbiting the Earth. Examples of debris include non-operational satellites, rocket bodies, and fragments generated from explosions, collisions, or faulty payload assembly.

Loading next visibility...
Identifier
7076, 1973-086BU
Orbit
SSO
Country
Flag of USUS
Related business
Manufacturer
Unknown
Mission
Spacecraft
Bus & Motor
Unknown
Mass
Unknown
Launch date (UTC)
1973-11-06 (52 years ago)
Launch vehicle
Unknown
Launch site
Air Force Western Test Range (AFWTR)
Object type
Payload
Rocket body
Debris
Shape & HBR
Unknown shape, 0.2 m
Radar Cross Section
Medium (>0.1 m² and <1 m²)

Expand to show TLE details & history
Last TLE update: 8 hours ago

TLE from 8 hours ago
0 DELTA 1 DEB
1 07076U 73086BU  25292.93322428  .00000004  00000-0  37485-3 0  9991
2 07076 102.2903 286.8400 0012120 148.6269 240.5938 12.39854986350542
Epoch: 2025-10-19T22:23Z
TLE epoch observation values (Epoch: 2025-10-19T22:23:50.577Z)
Latitude
28.41452°
Longitude
-84.49932°
Altitude
1,515.102 km
Speed
7.108 km/s
True Right ascension
18h 40m 25s
True Declination
28° 17' 05"
Sunlit
Object was in daylight at epoch
Visualization orbit readout
Latitude
Unknown
Longitude
Unknown
Altitude
Unknown
Speed
Unknown
Apparent Right ascension
Unknown
Apparent Declination
Unknown
Sunlit
N/A
Visualization observer readout
Local Sidereal Time
01:35:40
Azimuth
Unknown
Elevation
Unknown
Doppler factor
Unknown
Orbital elements
Apogee altitude
1,514.364 km
Perigee altitude
1,495.256 km
Semi-major axis
7,882.947 km
Eccentricity
0.00121
Inclination
102.2903°
RAAN
286.84°
Arg. of periapsis
148.6269°
True anomaly
240.4729°
Mean anomaly
240.5938°
Eccentric anomaly
240.53334°
Mean motion
3.10106 °/min
Orbital period
116.09 mins
BSTAR
0.00037485
Loading maneuver chart data...
Computing Atmospheric mass density...
Loading historical data...
Loading historical data...
Loading historical data...
Loading historical data...
Loading historical data...
Loading historical data...
Loading historical data...

Documentation

Showing up to 5 results
|